Vorticity
15 1 -1 6 7 7 7 4 -7 1 17 -8 -3 13 16 0 -3 43 12 8 -6 -9 15 11 5 2 0 1 16 16 13 10 10 7 6 10 8 9 6 6 7 8 7 7
7 2 -2 3 2 -1 2 5 6 5 -1 2 8 -0 -4 3 18 35 17 10 4 -2 5 9 7 5 1 4 4 6 13 10 13 10 10 7 4 3 5 8 8 6 6 5
1 -48 66 48 6 2 2 5 6 -3 3 3 2 23 12 13 7 -3 27 12 2 1 3 14 5 5 3 4 9 3 5 13 13 12 9 6 8 9 9 9 7 6 5 4
-5 17 -2 -5 -5 7 4 15 18 25 8 -4 14 3 -16 -2 -1 3 3 -1 20 17 10 1 -1 2 6 2 18 8 -2 12 8 13 11 12 14 7 8 7 7 5 3 4
-8 -8 33 29 25 35 -8 -11 15 -24 17 26 24 11 6 31 27 17 15 25 -2 19 7 3 11 -1 -0 7 -0 14 4 1 16 11 13 11 3 9 10 6 6 4 5 2
13 16 -12 -9 -11 -1 17 3 18 38 0 36 12 -11 25 18 19 38 27 21 28 14 -1 2 11 6 2 10 7 -1 4 -4 15 11 10 12 13 13 7 9 5 5 4 9
12 13 24 20 -8 -18 -1 -8 18 17 20 6 52 18 -53 11 -38 -5 -2 -21 31 20 13 4 12 19 2 8 7 5 2 4 13 13 14 17 15 11 8 6 5 4 7 6
7 57 55 42 47 15 38 -11 -49 11 6 11 19 16 -10 -4 15 9 7 18 21 6 8 14 50 -2 20 24 3 -1 6 10 8 16 17 17 12 9 9 4 4 7 2 5
16 24 19 18 8 71 56 -2 40 -26 -5 9 6 35 6 52 35 26 29 20 12 36 31 22 26 28 25 4 9 17 7 9 11 12 18 16 11 8 7 5 2 5 4 7
10 1 14 -21 -1 18 35 30 11 32 7 5 23 8 -6 33 15 -5 20 19 -2 6 5 8 27 58 5 13 -2 4 7 11 3 13 17 19 11 9 5 1 1 6 5 5
8 -17 -1 22 32 20 8 18 20 13 0 11 10 15 32 15 9 19 -8 11 6 5 24 10 11 19 2 -3 22 -8 1 9 10 14 18 19 10 8 3 -2 6 4 3 5
23 26 23 -6 -46 1 -24 4 -2 -8 23 2 5 31 -29 9 -2 2 9 15 38 22 8 0 -4 6 9 6 4 9 14 8 10 11 17 22 11 7 4 -1 7 3 3 5
47 40 6 35 46 24 23 11 25 4 19 11 -7 4 18 24 15 -6 -16 -4 8 -11 12 16 20 22 9 9 0 2 6 9 17 19 20 19 8 7 4 -0 4 4 2 5
6 21 -21 -19 -8 -2 5 11 -6 -4 4 -0 -16 -0 1 -34 -34 -5 5 15 -24 -31 6 -4 43 9 15 7 2 5 2 8 10 22 23 16 8 9 -10 8 4 3 3 6
16 -1 18 18 3 -3 10 3 -0 5 -4 -8 -12 -3 -1 4 29 47 20 28 16 8 36 4 34 8 9 10 9 8 12 11 6 22 9 15 6 3 4 13 1 5 4 7
3 7 17 24 14 19 9 2 8 10 14 6 6 2 38 21 2 -0 3 8 21 10 3 11 4 1 6 12 12 10 5 11 8 15 13 18 10 3 9 5 6 1 7 5
11 23 7 10 12 17 42 17 24 21 17 21 13 11 5 11 -2 6 6 6 19 21 19 11 5 21 12 -3 11 6 15 22 14 16 13 17 12 3 24 11 6 2 7 8
-5 7 -5 8 -1 6 4 2 8 12 14 18 9 9 14 7 12 11 9 6 6 -2 3 0 10 12 20 23 6 3 4 23 15 17 12 9 -3 40 23 3 1 8 6 9
2 7 12 -6 17 -15 9 24 3 4 0 11 10 18 15 16 20 26 14 9 14 22 14 11 27 18 14 25 28 1 1 30 9 11 1 -7 14 33 13 4 5 7 7 11
13 16 -29 5 5 2 24 6 19 10 6 10 4 1 12 13 11 20 12 14 22 10 11 19 13 27 9 8 10 25 -7 21 5 23 7 4 37 18 21 5 7 11 10 10
34 27 -4 -2 6 23 6 5 -22 22 -15 24 25 31 16 5 9 8 8 11 11 9 15 23 25 24 20 23 23 13 9 49 12 22 28 21 11 9 -4 7 8 9 10 11
33 7 40 21 2 20 24 7 17 -7 6 14 12 34 12 8 10 15 26 27 27 15 12 11 17 42 24 15 13 3 1 47 66 58 12 -21 8 4 10 9 11 11 13 9
9 16 7 -2 10 -18 -12 15 -2 18 31 10 15 18 21 21 17 16 14 27 16 8 11 32 3 -12 15 44 49 66 60 12 -19 -3 18 11 7 4 11 12 11 12 10 8
7 9 5 3 20 7 2 1 19 20 4 7 14 16 11 5 10 -4 8 11 17 13 28 5 21 9 2 10 32 38 -11 -2 17 8 3 7 10 12 11 10 11 10 8 9
1 1 1 -1 17 9 13 33 26 -2 -2 -2 10 7 6 13 5 5 9 12 26 43 13 13 -0 19 26 15 13 5 11 14 10 8 11 12 11 10 11 13 12 11 12 7
2 8 1 -2 4 5 18 15 61 4 6 12 7 8 1 13 9 15 12 10 13 51 6 16 7 12 12 8 4 0 9 8 12 9 7 9 13 14 12 13 13 12 9 9
Height
3069 3067 3059 3062 3068 3069 3071 3068 3066 3066 3067 3067 3062 3059 3062 3064 3062 3058 3060 3062 3064 3066 3067 3066 3069 3072 3076 3079 3080 3079 3080 3081 3083 3084 3085 3088 3091 3092 3093 3094 3095 3095 3096 3095
3064 3049 3056 3058 3062 3063 3063 3061 3059 3059 3062 3062 3057 3048 3052 3053 3053 3051 3052 3055 3056 3060 3057 3059 3060 3064 3067 3070 3072 3073 3074 3076 3077 3079 3080 3082 3084 3085 3087 3088 3089 3091 3091 3090
3050 3049 3052 3054 3055 3056 3051 3055 3057 3055 3057 3054 3052 3035 3040 3043 3046 3047 3047 3049 3050 3050 3049 3049 3051 3057 3060 3062 3064 3067 3069 3070 3071 3072 3073 3076 3077 3079 3082 3082 3084 3085 3086 3086
3037 3042 3044 3045 3045 3052 3039 3051 3050 3051 3052 3044 3048 3033 3025 3033 3035 3039 3041 3041 3043 3043 3042 3042 3043 3049 3053 3054 3056 3059 3063 3063 3062 3064 3066 3069 3072 3074 3077 3077 3079 3080 3080 3080
3016 3031 3035 3034 3038 3046 3025 3045 3044 3044 3043 3039 3033 3038 2992 3022 3023 3027 3030 3030 3035 3038 3035 3037 3037 3041 3043 3046 3050 3053 3054 3056 3057 3057 3059 3063 3064 3069 3069 3072 3073 3075 3075 3074
3016 3026 3030 3030 3031 3036 3038 3037 3035 3034 3036 3035 3020 3034 3003 3013 3016 3020 3023 3026 3022 3023 3024 3024 3027 3029 3032 3037 3040 3045 3048 3051 3051 3052 3053 3056 3057 3061 3063 3066 3069 3071 3070 3069
3013 3008 3017 3023 3023 3026 3032 3033 3032 3028 3028 3018 3016 3021 2997 3004 3007 3013 3014 3015 3017 3016 3014 3013 3013 3020 3023 3027 3031 3036 3042 3046 3047 3046 3047 3050 3053 3054 3056 3059 3063 3064 3065 3064
3009 3003 3007 3009 3007 3005 3012 3022 3023 3016 3017 3009 3013 3003 2997 3002 3001 3002 3002 3003 3003 3005 3006 3005 3006 3011 3013 3020 3030 3034 3036 3039 3040 3039 3039 3041 3044 3047 3050 3055 3057 3058 3059 3060
3004 2997 2998 3001 3001 3003 2997 3008 3011 3012 3009 3009 2999 2996 3000 2996 2997 2995 2994 2994 2996 2993 2996 2999 3001 3003 3012 3022 3025 3026 3031 3033 3033 3032 3033 3036 3039 3041 3045 3048 3050 3051 3052 3054
2996 2992 2991 2994 2997 2997 2992 2998 3004 3005 3004 2999 2990 2990 2990 2994 2997 2994 2993 2989 2993 2991 2993 2996 3000 3007 3014 3017 3021 3023 3023 3026 3027 3026 3026 3030 3033 3037 3039 3042 3045 3045 3046 3047
2990 2987 2989 2989 2989 2986 2988 2988 2992 2997 2994 2988 2987 2987 2983 2984 2988 2989 2991 2989 2987 2990 2991 2994 2998 3004 3009 3011 3009 3013 3015 3017 3020 3020 3019 3023 3025 3029 3034 3036 3038 3040 3040 3041
2980 2977 2979 2979 2982 2980 2979 2985 2985 2991 2990 2985 2981 2985 2981 2981 2986 2985 2986 2985 2985 2987 2991 2993 2995 2998 3000 3002 3003 3006 3008 3010 3012 3012 3011 3014 3020 3021 3027 3029 3032 3034 3035 3034
2973 2965 2967 2970 2975 2974 2977 2978 2976 2982 2983 2982 2981 2979 2979 2979 2981 2985 2984 2979 2980 2978 2986 2990 2990 2989 2992 2995 2998 3000 3001 3003 3004 3004 3005 3007 3011 3014 3018 3020 3023 3027 3029 3028
2965 2960 2955 2962 2966 2972 2974 2977 2974 2977 2981 2978 2976 2973 2974 2973 2977 2980 2977 2975 2977 2973 2977 2980 2981 2983 2985 2988 2990 2992 2993 2994 2994 2996 2998 3002 3005 3009 3009 3011 3013 3019 3022 3020
2959 2960 2955 2957 2961 2963 2969 2971 2969 2967 2971 2974 2969 2971 2963 2968 2969 2969 2970 2967 2967 2968 2968 2970 2975 2977 2978 2978 2980 2980 2982 2985 2987 2989 2990 2993 2997 3000 3000 3003 3006 3011 3014 3013
2950 2949 2952 2954 2956 2956 2965 2963 2962 2961 2963 2967 2964 2961 2961 2958 2957 2959 2959 2959 2959 2962 2965 2967 2967 2969 2969 2969 2970 2972 2973 2975 2979 2981 2984 2987 2990 2991 2993 2995 2998 3003 3005 3007
2945 2946 2950 2948 2949 2956 2959 2954 2952 2954 2958 2960 2958 2955 2955 2952 2953 2952 2952 2953 2954 2956 2958 2958 2958 2958 2958 2958 2961 2963 2964 2966 2969 2973 2976 2979 2980 2983 2983 2987 2991 2995 2999 3000
2937 2941 2944 2946 2950 2951 2948 2949 2950 2947 2951 2952 2950 2950 2949 2951 2950 2948 2947 2947 2948 2949 2949 2950 2948 2947 2946 2947 2950 2953 2955 2957 2960 2965 2967 2969 2972 2973 2975 2981 2985 2990 2992 2992
2931 2935 2938 2941 2945 2944 2939 2943 2943 2943 2945 2943 2941 2943 2944 2943 2943 2942 2941 2940 2939 2939 2938 2937 2936 2935 2934 2934 2938 2940 2943 2944 2948 2953 2957 2960 2960 2967 2972 2976 2981 2985 2985 2987
2926 2928 2932 2934 2938 2940 2935 2936 2938 2938 2936 2936 2936 2936 2936 2936 2936 2937 2935 2934 2932 2930 2928 2927 2924 2922 2922 2924 2926 2927 2929 2934 2937 2942 2946 2951 2955 2962 2967 2971 2977 2979 2979 2982
2920 2924 2925 2927 2931 2930 2930 2932 2935 2937 2937 2932 2932 2932 2932 2933 2932 2929 2927 2925 2923 2920 2919 2917 2914 2913 2913 2913 2915 2917 2917 2918 2927 2933 2935 2947 2951 2957 2961 2967 2972 2973 2974 2978
2916 2919 2919 2925 2928 2929 2926 2928 2932 2933 2930 2928 2928 2927 2927 2927 2925 2923 2920 2916 2916 2913 2911 2911 2908 2905 2905 2904 2905 2906 2907 2911 2918 2926 2935 2942 2949 2951 2956 2961 2965 2967 2971 2973
2916 2915 2916 2920 2920 2921 2921 2923 2925 2926 2926 2924 2924 2924 2924 2923 2922 2920 2917 2913 2910 2908 2906 2904 2905 2904 2901 2898 2898 2901 2908 2916 2921 2926 2933 2939 2943 2947 2952 2957 2960 2962 2965 2968
2915 2913 2915 2916 2917 2917 2917 2918 2918 2921 2923 2922 2922 2922 2921 2920 2919 2917 2913 2909 2906 2904 2903 2902 2902 2903 2901 2898 2900 2905 2912 2918 2923 2929 2933 2936 2939 2943 2948 2952 2955 2958 2961 2963
2911 2912 2911 2911 2914 2913 2912 2911 2913 2914 2915 2919 2919 2920 2919 2917 2916 2915 2911 2906 2903 2902 2902 2901 2902 2902 2901 2904 2907 2911 2914 2919 2923 2926 2929 2933 2937 2941 2945 2948 2951 2955 2957 2957
2905 2907 2908 2909 2912 2910 2909 2908 2905 2909 2911 2914 2916 2917 2917 2915 2914 2913 2910 2906 2902 2899 2900 2902 2902 2904 2906 2909 2911 2913 2915 2919 2921 2923 2927 2931 2935 2937 2939 2942 2946 2948 2948 2951